Peoria, IL

10:08 PM CDT on October 23, 2019 (GMT -0500)
Greater Peoria Regional

Weather History for KPIA - August, 2019

Change the Weather History Date:

Monday, August 26, 2019

  Actual Average Record
Temperature  
Mean Temperature 72 °F 73 °F  
Max Temperature 77 °F 83 °F 98 °F (2003)
Min Temperature 67 °F 63 °F 41 °F (1910)
Degree Days  
Heating Degree Days 0 0  
Month to date heating degree days 0 0  
Since 1 June heating degree days 5 19  
Since 1 July heating degree days 0 1  
Cooling Degree Days 7 8  
Month to date cooling degree days 248 239  
Year to date cooling degree days 960 870  
Since 1 June cooling degree days 879 789  
Growing Degree Days 22 (Base 50)    
Moisture  
Dew Point 67 °F    
Average Humidity 87    
Maximum Humidity 93    
Minimum Humidity 69    
Precipitation  
Precipitation 0.74 in 0.11 in 1.54 in (2012)
Month to date precipitation 3.82 2.71  
Year to date precipitation 33.50 24.42  
Snow  
Snow 0.00 in 0.00 in 0.00 in ()
Month to date snowfall 0.0 0.0  
Since 1 June snowfall 0.0 0.0  
Since 1 July snowfall 0.0 0.0  
Snow Depth 0.00 in    
Sea Level Pressure  
Sea Level Pressure 29.76 in    
Wind  
Wind Speed 9 mph ()    
Max Wind Speed 20 mph    
Max Gust Speed 33 mph    
Visibility 7.9 miles    
Events Rain , Thunderstorm    
T = Trace of Precipitation, MM = Missing Value Source: Averaged Metar Reports

Daily Weather History Graph

Daily Weather History Graph

Search for Another Location

Airport or City:

Astronomy

Aug. 26, 2019 Rise Set
Actual Time 6:19 AM CDT 7:40 PM CDT
Civil Twilight 5:51 AM CDT 8:09 PM CDT
Nautical Twilight 5:17 AM CDT 8:43 PM CDT
Astronomical Twilight 4:40 AM CDT 9:19 PM CDT
Moon 1:43 AM CDT (8/26) 5:05 PM CDT (8/26)
Length of Visible Light 14h 17m
Length of Day
13h 20m
Waning Crescent, 19% of the Moon is Illuminated
Aug 26
Waning Crescent
Aug 30
New
Sep 5
First Quarter
Sep 13
Full
Sep 21
Last Quarter

Hourly Weather History & Observations

Time (CDT) Temp. Dew Point Humidity Pressure Visibility Wind Dir Wind Speed Gust Speed Precip Events Conditions
12:04 AM 69.1 °F 64.0 °F 84% 29.88 in 10.0 mi East 9.2 mph - 0.00 in Rain Light Rain
12:54 AM 68.0 °F 64.0 °F 87% 29.85 in 10.0 mi East 10.4 mph - 0.00 in Rain Light Rain
1:54 AM 68.0 °F 64.9 °F 90% 29.83 in 10.0 mi East 8.1 mph - 0.01 in   Overcast
2:54 AM 68.0 °F 64.9 °F 90% 29.81 in 10.0 mi East 6.9 mph - 0.00 in   Overcast
3:10 AM 68.0 °F 64.9 °F 90% 29.81 in 10.0 mi East 9.2 mph - N/A   Overcast
3:28 AM 68.0 °F 64.9 °F 90% 29.80 in 10.0 mi East 6.9 mph - N/A   Overcast
3:46 AM 68.0 °F 64.9 °F 90% 29.81 in 1.2 mi SE 15.0 mph 32.2 mph 0.05 in Rain , Thunderstorm Heavy Thunderstorms and Rain
3:54 AM 68.0 °F 66.0 °F 93% 29.79 in 1.5 mi ESE 10.4 mph 20.7 mph 0.30 in Rain , Thunderstorm Heavy Thunderstorms and Rain
3:57 AM 68.0 °F 66.0 °F 93% 29.80 in 2.0 mi ESE 10.4 mph 20.7 mph 0.05 in Rain , Thunderstorm Heavy Thunderstorms and Rain
4:06 AM 68.0 °F 66.0 °F 93% 29.79 in 4.0 mi ESE 8.1 mph - 0.08 in Rain , Thunderstorm Thunderstorms and Rain
4:20 AM 68.0 °F 66.0 °F 93% 29.79 in 5.0 mi East 8.1 mph - 0.13 in Rain , Thunderstorm Light Rain
4:33 AM 68.0 °F 66.0 °F 93% 29.78 in 2.0 mi East 8.1 mph - 0.27 in Rain Rain
4:38 AM 68.0 °F 66.0 °F 93% 29.78 in 5.0 mi East 6.9 mph - 0.32 in Rain Light Rain
4:54 AM 68.0 °F 66.0 °F 93% 29.76 in 8.0 mi East 8.1 mph - 0.32 in   Overcast
5:17 AM 68.0 °F 66.0 °F 93% 29.77 in 8.0 mi East 9.2 mph - 0.00 in Rain Light Rain
5:54 AM 70.0 °F 68.0 °F 93% 29.75 in 2.5 mi SE 4.6 mph - 0.06 in Rain Light Rain
6:02 AM 70.0 °F 68.0 °F 93% 29.76 in 6.0 mi North - - 0.01 in Rain Light Rain
6:12 AM 70.0 °F 68.0 °F 93% 29.76 in 9.0 mi South 6.9 mph - 0.01 in Rain Light Rain
6:54 AM 71.1 °F 69.1 °F 93% 29.75 in 7.0 mi SE 11.5 mph 18.4 mph 0.01 in   Overcast
7:43 AM 72.0 °F 70.0 °F 93% 29.75 in 7.0 mi South 5.8 mph - 0.01 in Rain Light Rain
7:54 AM 72.0 °F 70.0 °F 93% 29.74 in 8.0 mi SSW 11.5 mph 16.1 mph 0.01 in Rain Light Rain
8:03 AM 72.0 °F 70.0 °F 93% 29.75 in 6.0 mi South 8.1 mph - 0.00 in Rain Light Rain
8:21 AM 72.0 °F 70.0 °F 93% 29.75 in 9.0 mi South 11.5 mph - 0.01 in Rain Light Rain
8:54 AM 72.0 °F 69.1 °F 91% 29.73 in 10.0 mi South 12.7 mph - 0.01 in Rain Light Rain
9:37 AM 72.0 °F 69.1 °F 91% 29.74 in 10.0 mi South 9.2 mph - 0.00 in Rain Light Rain
9:54 AM 72.0 °F 69.1 °F 91% 29.73 in 10.0 mi SSW 9.2 mph - 0.00 in   Overcast
10:01 AM 72.0 °F 69.1 °F 91% 29.75 in 10.0 mi South 10.4 mph - N/A   Overcast
10:12 AM 72.0 °F 69.1 °F 91% 29.75 in 7.0 mi SSW 13.8 mph - N/A   Overcast
10:43 AM 71.1 °F 68.0 °F 90% 29.76 in 2.0 mi SSW 13.8 mph 21.9 mph 0.00 in Rain Light Rain
10:54 AM 71.1 °F 68.0 °F 90% 29.73 in 2.0 mi SSW 12.7 mph - 0.01 in Rain Light Rain
11:07 AM 71.1 °F 69.1 °F 93% 29.73 in 4.0 mi SSW 12.7 mph - 0.01 in Rain Light Rain
11:23 AM 72.0 °F 69.1 °F 91% 29.74 in 10.0 mi SW 11.5 mph - 0.01 in   Overcast
11:54 AM 73.0 °F 70.0 °F 90% 29.73 in 8.0 mi SW 12.7 mph - 0.01 in   Overcast
12:25 PM 73.0 °F 69.1 °F 87% 29.73 in 10.0 mi SW 12.7 mph - 0.00 in Rain Light Rain
12:45 PM 72.0 °F 68.0 °F 87% 29.74 in 10.0 mi WSW 16.1 mph - 0.00 in   Overcast
12:54 PM 73.0 °F 68.0 °F 84% 29.73 in 10.0 mi WSW 11.5 mph - 0.00 in   Overcast
1:54 PM 73.9 °F 66.9 °F 79% 29.73 in 10.0 mi SW 12.7 mph - N/A   Overcast
2:17 PM 73.9 °F 66.9 °F 79% 29.74 in 10.0 mi WSW 13.8 mph 21.9 mph N/A   Overcast
2:54 PM 75.0 °F 66.9 °F 76% 29.70 in 10.0 mi SW 10.4 mph - N/A   Overcast
3:06 PM 75.9 °F 68.0 °F 76% 29.71 in 10.0 mi SW 13.8 mph 19.6 mph N/A   Overcast
3:20 PM 75.9 °F 68.0 °F 76% 29.70 in 10.0 mi WSW 15.0 mph - N/A   Mostly Cloudy
3:54 PM 75.9 °F 66.9 °F 74% 29.68 in 10.0 mi SW 9.2 mph - N/A   Mostly Cloudy
4:18 PM 75.9 °F 66.9 °F 74% 29.69 in 10.0 mi WSW 9.2 mph - N/A   Partly Cloudy
4:54 PM 77.0 °F 66.9 °F 71% 29.70 in 10.0 mi WSW 11.5 mph - N/A   Partly Cloudy
5:54 PM 75.9 °F 68.0 °F 76% 29.73 in 10.0 mi West 9.2 mph - N/A   Mostly Cloudy
6:54 PM 75.0 °F 66.9 °F 76% 29.74 in 10.0 mi West 8.1 mph - N/A   Overcast
7:54 PM 73.9 °F 66.9 °F 79% 29.74 in 10.0 mi WSW 6.9 mph - N/A   Overcast
8:54 PM 72.0 °F 66.0 °F 81% 29.77 in 10.0 mi West 4.6 mph - N/A   Overcast
9:54 PM 70.0 °F 66.0 °F 87% 29.77 in 10.0 mi WNW 3.5 mph - N/A   Partly Cloudy
10:54 PM 69.1 °F 64.9 °F 87% 29.77 in 10.0 mi WNW 4.6 mph - N/A   Clear
11:54 PM 68.0 °F 64.9 °F 90% 29.77 in 10.0 mi West 3.5 mph - N/A   Clear